Showing default

SUPERVIEW NEO-1 03, 63125

Orbit data source: Space-Track

SUPERVIEW NEO-1 03, 63125 is a payload satellite owned by Siwei (CN) in SSO that was launched on Thu, 27 Feb 2025 UTC via a CHANG ZHENG 2C launch vehicle from the Jiuquan Satellite Launch Center, China (JSC). Payload-class satellites include a variety of spacecraft equipped with specific instruments for various scientific and technological missions. These include communications satellites like Starlink; space stations such as the ISS; scientific satellites like the Hubble; Earth observation satellites from companies like Planet Labs, Umbra, and HawkEye 360; GPS; miniature CubeSats for education and research; and military/defense satellites.

Loading next visibility...
Identifier
63125, 2025-040A
Orbit
SSO
Last TLE update
8 hours ago
Origin
Manufacturer
SAST
Mission
Operational Commercial Imaging
Bus & Motor
SIWEI, Unknown motor
Mass
540 kg wet, ~500 kg dry
Launch date (UTC)
2025-02-27 (4 months ago)
Launch vehicle
CHANG ZHENG 2C
Launch site
Jiuquan Satellite Launch Center, China (JSC)
Object type
Payload
Rocket body
Debris
Shape & HBR
Box, 0.5 m
Radar Cross Section
0.375 m², Large (>1 m²)

Expand to show TLE details & history

TLE from 8 hours ago
0 SUPERVIEW NEO-1 03
1 63125U 25040A   25185.91548499  .00008248  00000-0  36848-3 0  9992
2 63125  97.3256 304.0112 0001010  92.0092 268.1260 15.21589676 19371
Epoch: 2025-07-04T21:58Z
TLE epoch observation values (Epoch: 2025-07-04T21:58:17.903Z)
Latitude
0.00001°
Longitude
51.27557°
Altitude
504.163 km
Speed
7.612 km/s
True Right ascension
20h 16m 02s
True Declination
0° 00' 00"
Sunlit
Object was in full shadow at epoch
Visualization orbit readout
Latitude
80.05669°
Longitude
4.78346°
Altitude
513.708 km
Speed
7.614 km/s
Apparent Right ascension
06h 25m 09s
Apparent Declination
35° 41' 11"
Sunlit
Object is in daylight
Visualization observer readout
Local Sidereal Time
18:07:09
Azimuth
356.232° N
Elevation
-14.284°
Doppler factor
1
Orbital elements
Apogee altitude
498.7 km
Perigee altitude
497.311 km
Semi-major axis
6,876.142 km
Eccentricity
0.0001
Inclination
97.3256°
RAAN
304.0112°
Arg. of periapsis
92.0092°
True anomaly
Unknown
Mean anomaly
268.126°
Eccentric anomaly
Unknown
Mean motion
3.8065 °/min
Orbital period
94.58 mins
BSTAR
0.00036848
Loading maneuver chart data...
Loading SW <> Apogee altitude chart data...
Loading historical data...
Loading historical data...
Loading historical data...
Loading historical data...
Loading historical data...
Loading historical data...
Loading historical data...
Other satellites on launch #40 in the year 2025 (2025-02-27 UTC)

SUPERVIEW NEO-1 03 Visibility forecast

Observer location: undefined°, undefined°

Span
Click to sort rows by Start time (UTC) header in descending order
Start Az.
Max El. time (UTC)
Max El. Az.
Max El.
End time (UTC)
End Az.
6 mins2025-07-05 07:34:38.256Z142.251° SSE2025-07-05 07:37:38.256Z58.043° ENE34.377°2025-07-05 07:40:38.256Z2.318° NNE
6 mins2025-07-05 20:37:38.256Z17.189° NNE2025-07-05 20:40:38.256Z70.858° E42.855°2025-07-05 20:43:38.256Z183.98° SSW
|